Skip Page Navigation
NASA JPL Caltech
NASA Logo - Jet Propulsion Laboratory + View the NASA Portal
+ Center for Near-Earth Object Studies
JPL Home Earth Solar System Stars & Galaxies Technology
JPL Solar System Dynamics
BODIES ORBITS EPHEMERIDES TOOLS PHYSICAL DATA DISCOVERY FAQ SITE MAP
JPL Small-Body Database Browser
Search: [ help ]  
413745 (2006 BS270)
Classification: Main-belt Asteroid          SPK-ID: 2413745
Ephemeris | Orbit Diagram | Orbital Elements | Mission Design | Physical Parameters | Discovery Circumstances | Close-Approach Data ]

[ show orbit diagram ]
Orbital Elements at Epoch 2459000.5 (2020-May-31.0) TDB
Reference: JPL 19 (heliocentric ecliptic J2000)
 Element Value Uncertainty (1-sigma)   Units 
e .2040069114574306 9.5813e-08  
a 2.751527659415053 4.498e-08 au
q 2.190196999828095 2.7612e-07 au
i 8.888775071906613 1.0061e-05 deg
node 301.2651112337315 3.8461e-05 deg
peri 234.4141869102982 4.3903e-05 deg
M 36.31968316061214 2.5469e-05 deg
tp 2458832.310530146764
(2019-Dec-14.81053015)
0.00011493 TDB
period 1667.090785990889
4.56
4.0879e-05
1.119e-07
d
yr
n .2159450481192735 5.2952e-09 deg/d
Q 3.312858319002011 5.4156e-08 au
  Orbit Determination Parameters
   # obs. used (total)      213  
   data-arc span      5201 days (14.24 yr)  
   first obs. used      2006-01-31  
   last obs. used      2020-04-28  
   planetary ephem.      DE431  
   SB-pert. ephem.      SB431-N16  
   condition code      0  
   norm. resid. RMS      .55273  
   source      ORB  
   producer      Otto Matic  
   solution date      2020-May-22 02:08:19  

Additional Information
 Earth MOID = 1.20955 au 
 Jupiter MOID = 1.75511 au 
 T_jup = 3.298 
[ show covariance matrix ]

Ephemeris | Orbit Diagram | Orbital Elements | Mission Design | Physical Parameters | Discovery Circumstances | Close-Approach Data ]

Physical Parameter Table
Parameter Symbol Value Units Sigma Reference Notes
absolute magnitude H 16.4   n/a MPO472164  

413745 (2006 BS270)          Discovered 2006-Jan-31 by LONEOS at Anderson Mesa
Reference: Last Updated: 2014-11-10

[ show close-approach data ]
Alternate Designations
 2006 BS270 = 2007 RX275 
Ephemeris | Orbit Diagram | Orbital Elements | Mission Design | Physical Parameters | Discovery Circumstances | Close-Approach Data ]
ABOUT SSD CREDITS/AWARDS PRIVACY/COPYRIGHT GLOSSARY LINKS
FirstGov 2020-Aug-08 06:22 UT
(server date/time)  
NASA Home Page
Site Manager:   Ryan S. Park
Webmaster  Alan B. Chamberlin